Weather in Bolshepeschanka

Russia / Omsk Oblast     55°31′36″N   70°48′30″E
temp.,
°C
wind,
m/s
gust,
m/s
humid.,
%
clouds,
%
prec.,
mm/h
press.,
hPa
HPBL,
m
17 may, mon
mon1700:00+19e226081 0.0 101611
03:00+17sse3366100 0.0 101730
06:00+16sw397195 0.0 1017151
09:00+24wsw574498 0.0 1016364
12:00+29wnw673072 0.0 10151076
15:00+31wnw7102315 0.0 10143612
18:00+30wnw6102898 0.0 10133673
21:00+23w45445 0.0 101256
18 may, tue
tue1800:00+21nnw5134847 0.1 1012273
03:00+17w46625 0.0 101277
06:00+17nw496367 0.0 1012160
09:00+21wnw475497 0.0 1011398
12:00+26wnw573911 0.0 10112022
15:00+26nnw6938100 0.0 10102272
18:00+23nnw6945100 0.0 1009586
21:00+17n51073100 0.4 1011416
19 may, wed
wed1900:00+13nne6118588 0.6 1014536
03:00+12nne71182100 0.1 1015750
06:00+11nne6107971 0.1 1017859
09:00+13nne7106473 0.0 10191398
12:00+16nne784211 0.0 10201914
15:00+18nne683510 0.0 10202044
18:00+17n78375 0.0 10201976
21:00+13n35539 0.0 102175
20 may, thu
thu2000:00+10nne4106016 0.0 1022196
03:00+8nne3861100 0.0 1023154
06:00+6nne36675 0.0 1025122
09:00+12nne344410 0.0 1025646
12:00+15nw33396 0.0 10241188
15:00+19wnw46375 0.0 10221715
18:00+20wnw683752 0.0 10211849
21:00+16wsw4756100 0.0 1020111
21 may, fri
fri2100:00+14wsw513605 0.0 1020205
03:00+14w514570 0.0 1019243
06:00+13w514620 0.0 1019251
09:00+20wnw710480 0.0 1019437
12:00+27wnw67364 0.1 10151062
15:00+29nw673160 0.0 10143397
18:00+28nnw563613 0.0 10141976
21:00+22wnw335387 0.0 101426